{"data":{"norad_id":64667,"epoch":"2026-09-20T14:31:09.521184Z","epoch_age_seconds":122497,"freshness":"FRESH","line1":"1 64667U 25139D   26263.60497131  .00020730  00000+0  62284-3 0  9995","line2":"2 64667  53.1582 299.0477 0001252  83.6293 276.4852 15.34406614 70166","mean_motion":15.34406614,"eccentricity":0.0001252,"inclination_deg":53.1582,"raan_deg":299.0477,"arg_perigee_deg":83.6293,"mean_anomaly_deg":276.4852,"bstar":0.00062284,"rev_number":7016,"period_min":93.847353554225,"perigee_km":461.827111339,"apogee_km":463.54005281276,"semimajor_km":6840.8205820759,"source":"CELESTRAK","updated_at":"2026-09-21T09:00:35.397359Z"}}